NOAA 16 DEB, 41353

Orbit data source: Space-Track

NOAA 16 DEB, 41353 is space debris in SSO originally from a launch on Thu, 21 Sep 2000 UTC launched from the Air Force Western Test Range (AFWTR). Debris objects in space refer to the collection of defunct objects orbiting the Earth. Examples of debris include non-operational satellites, rocket bodies, and fragments generated from explosions, collisions, or faulty payload assembly.

Loading next visibility...
Identifier
41353, 2000-055HW
Orbit
SSO
Country
Flag of USUS
Related business
Manufacturer
Unknown
Mission
Spacecraft
Bus & Motor
Unknown
Mass
Unknown
Launch date (UTC)
2000-09-21 (25 years ago)
Launch vehicle
Unknown
Launch site
Air Force Western Test Range (AFWTR)
Object type
Payload
Rocket body
Debris
Shape & HBR
Unknown shape, 0.1 m
Radar Cross Section
Small (<0.1 m²)

Expand to show TLE details & history
Last TLE update: 2 days ago

TLE from 2 days ago
0 NOAA 16 DEB
1 41353U 00055HW  25291.96416967  .00006319  00000-0  27691-2 0  9999
2 41353  98.7094 356.0690 0023057  54.3854 305.9468 14.23859212501626
Epoch: 2025-10-18T23:08Z
TLE epoch observation values (Epoch: 2025-10-18T23:08:24.259Z)
Latitude
-0.00004°
Longitude
-18.71971°
Altitude
805.541 km
Speed
7.456 km/s
True Right ascension
23h 44m 16s
True Declination
0° 00' 00"
Sunlit
Object was in full shadow at epoch
Visualization orbit readout
Latitude
Unknown
Longitude
Unknown
Altitude
Unknown
Speed
Unknown
Apparent Right ascension
Unknown
Apparent Declination
Unknown
Sunlit
N/A
Visualization observer readout
Local Sidereal Time
00:12:05
Azimuth
Unknown
Elevation
Unknown
Doppler factor
Unknown
Orbital elements
Apogee altitude
826.057 km
Perigee altitude
792.912 km
Semi-major axis
7,187.621 km
Eccentricity
0.00231
Inclination
98.7094°
RAAN
356.069°
Arg. of periapsis
54.3854°
True anomaly
305.73254°
Mean anomaly
305.9468°
Eccentric anomaly
305.83971°
Mean motion
3.56177 °/min
Orbital period
101.07 mins
BSTAR
0.0027691
Loading maneuver chart data...
Computing Atmospheric mass density...

Documentation

Showing up to 5 results
|